Lid_Strength_Index
1 0 -0 -1 -1 -1 -1 -1 -1 -1 -2 -2 -2 -2 -2 -2 -2 -2 -2 -2 -2 -2 -1 -1 -1 -1 -1 -1 -1 -1 -1 -1
1 0 -0 -1 -1 -1 -1 -1 -1 -1 -1 -2 -2 -2 -2 -2 -2 -2 -2 -2 -2 -2 -1 -1 -1 -1 -1 -1 -1 -2 -1 -1
1 0 0 -1 -1 -1 -1 -1 -1 -1 -1 -1 -1 -2 -2 -2 -2 -2 -2 -1 -1 -1 -1 -1 -1 -1 -1 -1 -1 -1 -1 -1
1 1 0 0 -0 -1 -1 -1 -1 -1 -1 -1 -1 -1 -1 -1 -1 -2 -1 -1 -1 -1 -1 -1 -1 -1 -1 -1 -1 -1 -1 -1
1 2 1 0 0 0 0 -1 -1 -1 -1 -1 -1 -1 -1 -1 -1 -1 -1 -1 -1 -1 -1 -1 -1 -1 -1 -1 -1 -1 -1 -1
1 1 2 0 0 0 0 -0 -1 -1 -1 -1 -1 -1 -1 -0 0 -0 -1 -1 -1 -1 -1 -1 -1 -1 -1 -1 -1 -1 -1 0
3 2 1 1 1 0 0 0 0 0 0 -0 -0 0 -0 0 0 -0 -1 -1 -1 -1 -1 -1 -1 -1 -1 0 0 -1 1 1
3 2 1 1 0 1 1 0 0 0 0 0 0 0 0 0 0 0 1 0 0 -1 0 -0 0 0 0 1 1 1 1 0
7 3 1 1 1 1 0 0 0 0 0 0 0 0 0 0 0 0 0 0 0 0 0 1 1 1 1 0 1 2 1 2
7 6 1 1 1 1 1 1 1 1 0 0 0 0 0 0 1 0 0 0 0 2 1 2 2 2 2 1 1 1 1 1
5 6 3 1 1 1 1 1 1 0 0 0 0 0 0 0 1 1 1 1 1 3 2 2 2 2 2 2 2 1 1 1
5 5 5 1 1 1 1 1 1 1 1 1 0 0 0 0 1 1 1 1 2 3 2 2 2 2 1 2 1 1 1 1
5 5 5 1 1 1 1 1 1 1 1 1 1 1 0 0 1 2 1 1 3 3 3 3 2 2 3 2 2 3 2 2
5 5 5 4 2 1 2 2 1 1 1 1 1 1 1 1 1 2 2 2 3 3 3 3 3 3 4 3 3 3 3 2
5 5 5 3 2 2 3 3 2 2 3 2 2 1 1 1 2 2 2 3 3 3 3 3 4 3 3 3 2 2 2 2
5 5 5 2 2 2 2 2 3 3 4 4 3 2 2 2 2 3 3 3 3 3 3 3 3 3 3 2 2 3 2 2
4 3 3 2 2 2 2 4 4 4 5 4 4 3 2 2 2 2 2 2 3 3 3 3 3 3 3 2 3 4 6 4
3 3 3 2 3 3 3 4 5 5 5 5 5 4 3 1 2 1 1 2 3 2 3 3 2 3 4 3 4 4 6 7
3 3 3 3 3 3 3 4 4 5 6 5 5 4 3 1 2 2 2 3 2 3 3 3 3 4 4 5 3 3 4 5